Location: *
(33.8649°S, 62.1526°E)
Time: 08:28:44
(UTC+00:00)

Cosmos 44 Rocket - Pass Details

Date: 09 December 2021
Orbit: 648 x 741 km, 65.1° (Epoch: 23 January)

Event Time Altitude Azimuth Distance (km) Brightness Sun altitude
Rises 15:56:16 0° 347° (NNW) 2,953 6.3 -11.6°
Reaches altitude 10° 15:58:36 10° 353° (N) 2,049 5.4 -12.0°
Maximum altitude 16:03:03 47° 66° (ENE) 872 3.4 -12.7°
Drops below altitude 10° 16:07:34 10° 139° (SE) 2,088 5.8 -13.4°
Sets 16:09:58 0° 145° (SE) 3,016 6.7 -13.8°
